Temperature
7 6 6 6 7 8 8 8 7 8 8 8 7 7 8 8 8 8 8 9 10 10 10 11 11 11 11 11 11 11 11 11 11 10 10 10 10 10 10 10 10 10 10 10
6 6 7 7 7 7 7 7 7 7 8 8 7 7 7 7 7 8 8 9 9 10 10 10 10 10 10 10 10 10 10 10 10 10 10 10 10 10 10 10 10 10 10 10
7 7 7 8 7 7 7 7 7 7 7 7 7 8 8 8 8 8 8 9 10 10 10 10 10 10 10 10 10 10 10 10 10 10 10 10 9 10 10 10 10 9 9 9
6 7 7 7 7 7 7 7 7 7 6 6 7 7 8 7 7 7 8 8 9 10 10 10 10 10 10 10 10 10 10 10 10 9 9 9 9 9 9 9 9 9 9 9
6 6 7 7 7 7 7 7 6 6 6 6 6 7 7 7 8 8 7 8 9 10 10 10 10 10 10 10 10 10 10 9 9 9 9 9 9 9 9 9 8 8 8 8
6 6 6 7 7 7 6 6 6 5 5 7 6 6 7 6 8 8 7 8 9 10 10 10 10 10 10 10 10 9 9 9 9 9 9 8 8 8 8 8 8 8 8 8
6 6 6 6 7 6 6 6 5 6 5 6 6 6 6 7 7 7 7 8 9 10 10 10 10 10 10 10 9 9 9 9 8 8 8 8 8 8 8 7 7 7 7 7
6 6 6 6 6 6 6 6 6 7 6 5 5 5 6 7 7 7 8 8 9 9 9 9 9 9 10 9 9 9 9 8 8 8 8 8 7 7 7 7 7 7 7 7
5 6 6 6 6 6 6 5 5 4 4 5 5 5 6 7 7 7 7 8 8 9 9 9 9 9 9 9 9 9 8 8 8 8 7 7 7 7 7 6 6 6 6 6
6 5 5 5 6 6 6 4 4 4 6 6 6 6 6 7 7 7 6 7 8 9 9 9 9 9 9 9 8 8 8 8 8 7 7 7 7 6 6 6 6 6 6 5
5 5 5 5 5 5 5 5 4 4 4 5 6 7 7 7 7 6 6 7 8 8 9 9 9 9 8 8 8 8 8 8 7 7 7 6 6 6 6 5 5 5 5 5
4 3 3 4 5 5 5 5 4 5 5 3 4 6 7 6 6 6 7 7 8 8 8 8 8 8 8 8 8 8 7 7 7 7 6 6 6 5 5 5 5 5 5 4
4 4 4 5 5 4 4 4 4 4 3 2 4 6 6 5 6 7 7 7 8 8 8 8 8 8 8 8 7 7 7 7 6 6 6 6 5 5 5 5 4 4 4 4
5 4 4 6 6 4 4 4 3 3 3 3 3 5 6 6 6 6 7 7 7 7 7 7 7 7 7 7 7 7 6 6 6 6 6 5 5 5 5 4 4 4 4 3
4 3 3 3 4 4 4 4 3 3 3 4 4 4 6 5 5 6 6 6 6 6 7 7 7 7 7 6 6 6 6 6 5 5 5 5 5 4 4 4 4 3 3 3
3 3 3 3 3 3 3 4 3 4 4 3 4 4 5 5 5 5 6 6 6 6 6 6 6 6 6 6 6 6 6 5 5 5 5 5 4 4 4 4 3 3 3 3
1 2 3 3 3 3 3 4 4 3 3 3 4 5 4 4 4 5 5 6 6 6 6 6 6 6 6 6 6 5 5 5 5 5 4 4 4 4 3 3 3 3 3 3
2 2 2 2 3 3 5 5 4 4 3 3 3 4 3 4 5 5 6 6 6 6 6 6 6 5 5 5 5 5 5 5 4 4 4 4 3 3 3 3 3 3 2 2
2 2 2 2 2 3 4 4 3 3 3 3 3 3 3 4 4 5 6 6 6 5 5 5 5 5 5 5 4 4 4 4 4 4 3 3 3 3 3 2 2 2 2 2
1 1 2 2 2 3 5 4 4 4 4 4 3 3 3 3 2 3 5 5 5 5 5 5 5 5 4 4 4 4 4 3 3 3 3 3 3 2 2 2 2 2 2 2
0 1 1 2 2 3 3 4 4 4 4 5 4 4 4 3 4 5 5 5 5 5 5 4 4 4 4 4 3 3 3 3 3 2 2 2 2 2 2 2 2 2 1 1
1 0 1 1 2 3 3 3 3 4 5 5 5 4 4 4 4 4 4 4 4 4 4 4 4 4 3 3 3 3 3 2 2 2 2 2 2 2 2 1 1 1 1 1
0 1 1 2 3 4 4 4 4 4 4 4 4 4 4 4 4 4 4 4 4 4 3 3 3 3 3 3 2 2 2 2 2 1 1 1 1 1 1 1 1 1 0 0
-1 0 0 0 1 2 3 4 4 4 4 4 4 4 4 3 3 3 3 3 3 3 3 3 2 2 2 2 2 2 2 1 1 1 1 1 1 1 1 1 0 0 0 0
-0 -1 -1 -0 1 2 3 4 4 4 4 3 3 3 3 3 3 2 2 2 2 2 2 2 2 2 2 2 2 2 1 1 1 1 1 0 0 0 0 0 0 0 0 -0
-1 -0 0 1 2 2 3 4 4 3 3 3 3 3 2 2 2 2 2 2 2 1 1 2 2 2 2 2 1 1 1 1 1 1 0 0 0 -0 -0 -0 -0 -0 -0 -1
Wind_Speed
4 5 1 3 3 3 3 2 3 5 3 1 3 7 9 5 4 5 5 6 6 6 4 3 3 3 3 3 3 3 3 2 2 2 1 1 1 2 2 3 5 5 5 5
5 2 3 2 1 1 1 1 3 4 3 1 3 7 7 5 5 6 7 7 6 5 3 4 3 3 4 3 3 3 3 2 2 1 1 1 1 0 1 2 4 5 5 5
2 2 2 1 2 2 1 2 2 2 5 3 4 7 5 3 2 3 5 5 5 6 7 5 5 4 4 4 4 4 3 2 2 2 2 2 2 2 2 2 2 4 5 5
1 3 1 2 2 1 2 1 1 1 3 3 3 4 6 4 5 4 4 3 4 5 5 5 5 5 5 5 4 3 3 3 2 2 2 2 1 1 1 1 2 3 4 4
2 2 2 1 2 0 1 1 1 1 1 2 1 1 7 3 4 5 4 4 4 4 5 6 6 6 5 4 3 3 3 3 2 3 3 2 1 1 1 1 2 3 3 4
1 1 0 1 1 0 0 3 4 4 3 2 2 3 6 4 5 5 4 4 4 4 4 4 4 3 3 3 3 3 3 2 3 3 3 3 3 2 2 2 3 3 3 3
4 2 2 1 2 4 4 4 4 5 3 4 1 3 8 6 5 5 6 5 4 4 4 4 4 4 4 4 4 3 3 3 3 3 3 4 4 3 3 3 3 3 3 3
2 4 3 1 1 1 1 4 4 3 4 5 2 6 7 5 5 4 4 3 2 2 3 4 5 5 5 5 5 4 4 4 4 4 4 3 3 3 3 3 3 3 3 3
2 4 2 1 1 3 3 2 3 4 1 3 6 7 8 3 2 2 1 1 0 1 2 3 3 4 5 5 5 5 5 5 4 4 4 3 3 3 4 4 3 3 3 3
4 2 3 3 1 2 2 5 4 3 1 4 6 6 5 5 3 2 2 2 2 1 2 2 3 3 4 4 4 4 5 5 4 4 4 3 4 4 4 3 4 4 4 3
2 2 3 2 3 4 3 3 3 3 3 3 4 7 5 6 4 3 4 3 3 3 3 3 3 3 3 2 3 3 4 4 4 4 4 4 4 4 3 4 4 4 4 4
2 3 3 5 3 2 4 5 6 3 4 4 3 8 5 5 5 3 4 4 4 4 4 3 3 2 2 3 3 4 4 4 5 4 4 4 4 4 4 4 5 4 4 4
4 3 2 4 2 0 2 4 5 3 3 5 5 8 3 1 2 2 3 5 5 5 4 3 3 3 3 3 4 4 4 5 4 3 4 4 4 4 5 5 4 4 4 4
3 4 6 7 5 4 5 5 5 5 5 6 10 12 9 7 7 6 6 6 6 6 5 4 4 4 4 4 4 4 5 4 4 4 4 5 6 6 6 5 4 4 4 4
4 5 6 8 8 6 9 10 9 11 10 11 11 12 14 9 7 7 6 6 6 6 6 5 5 5 4 4 4 4 4 4 3 4 5 6 6 5 5 5 5 4 4 5
3 4 3 6 6 8 11 14 15 14 12 14 15 16 10 6 5 5 7 7 7 7 7 6 6 5 6 6 5 5 5 4 3 4 6 6 5 5 5 5 5 5 5 5
4 4 2 6 4 5 10 12 14 9 9 9 13 11 5 4 6 6 7 7 8 8 7 7 6 6 6 6 6 6 5 4 4 5 5 5 5 5 6 5 5 5 5 5
7 5 3 3 1 9 8 3 7 9 8 9 8 6 5 7 6 6 7 6 7 7 7 7 6 5 5 5 5 5 4 4 4 5 6 5 5 6 5 5 6 6 5 5
8 7 4 3 5 10 9 4 5 7 6 7 9 8 5 4 3 4 5 5 6 6 6 6 6 5 4 4 4 4 4 4 5 6 6 6 6 6 5 6 6 5 4 5
3 5 5 5 5 8 6 2 3 4 5 4 6 6 4 1 2 5 4 4 5 5 5 5 4 4 4 4 3 3 5 5 6 7 7 6 6 6 6 7 6 5 4 5
4 5 8 9 8 9 7 2 4 4 5 2 4 5 5 5 6 6 5 5 5 6 6 4 4 4 5 4 3 4 5 7 7 6 6 5 6 6 6 5 4 4 4 4
8 7 7 6 8 10 4 5 5 6 3 2 3 4 5 6 7 6 6 6 6 6 6 5 4 5 5 4 4 5 7 7 5 5 5 5 5 5 4 5 4 4 4 4
9 10 7 9 10 4 3 5 5 3 4 4 4 5 5 6 7 7 6 6 6 6 6 5 5 6 6 5 5 7 7 5 4 4 5 5 5 5 4 4 5 4 4 4
6 4 5 7 9 8 8 7 7 5 6 6 6 6 5 7 7 7 7 7 6 6 6 5 5 6 7 6 6 7 7 5 5 5 6 5 4 5 4 4 4 4 5 5
7 5 6 9 9 8 8 8 8 7 7 7 7 6 7 7 8 8 7 7 6 6 6 5 6 7 8 7 7 7 6 5 5 6 5 5 4 5 4 5 5 6 6 6
7 8 9 11 9 7 9 7 6 7 8 8 7 7 6 6 8 7 7 6 6 6 6 6 7 7 8 7 7 7 6 5 6 5 5 4 4 4 4 4 4 6 7 9
Wind_Direction
22 57 28 257 223 213 194 198 269 281 308 324 254 271 275 263 226 230 229 222 221 222 223 187 180 167 150 147 144 140 126 112 98 86 82 60 27 17 21 23 21 19 18 15
40 2 276 275 266 133 166 237 292 311 347 337 295 286 275 250 229 223 222 223 221 220 211 194 183 175 173 174 173 164 158 143 132 126 132 139 159 323 331 359 11 10 8 4
134 274 310 60 45 69 10 197 237 300 340 18 350 315 294 290 258 248 232 219 215 211 208 201 195 195 186 193 190 180 174 158 151 129 102 81 58 22 5 359 352 351 353 354
1 327 33 51 17 76 297 251 209 0 18 323 28 306 290 292 299 276 260 242 229 219 206 201 198 201 204 208 195 186 172 160 153 143 137 141 150 218 271 297 313 328 347 348
332 353 33 26 303 260 231 351 31 53 112 341 11 210 287 316 289 282 270 253 243 220 204 205 206 204 204 195 189 193 173 169 163 156 164 164 193 222 264 301 315 322 330 337
293 309 327 255 324 97 174 50 48 48 64 315 244 184 278 257 245 276 276 261 246 224 210 216 212 193 193 183 180 186 181 192 180 177 180 183 207 228 265 298 306 311 315 319
345 343 351 16 36 21 55 71 24 2 1 261 260 217 253 261 257 254 263 263 246 215 200 207 206 201 202 199 196 194 197 213 204 196 198 200 210 216 229 256 275 289 300 302
6 309 318 356 139 157 102 120 148 213 249 290 299 243 259 277 286 273 258 252 231 212 210 215 217 211 211 209 202 200 209 223 213 208 215 212 211 217 233 239 248 263 271 279
172 271 325 333 302 138 124 148 155 137 150 281 275 285 301 295 326 1 14 32 221 230 231 234 232 221 218 215 214 213 215 226 225 219 217 218 217 219 235 246 249 262 267 275
161 257 302 317 44 35 126 145 108 126 182 278 293 282 261 287 295 321 321 305 289 280 266 264 253 241 236 227 224 218 218 224 229 223 224 228 228 229 233 240 251 258 267 270
140 179 307 340 204 195 133 134 132 131 168 191 275 274 231 227 242 269 277 286 279 275 267 264 259 247 245 245 236 232 230 230 230 226 225 231 237 235 234 238 247 252 261 263
144 134 264 261 253 192 189 187 159 171 225 199 224 269 272 234 243 254 279 299 303 293 277 264 257 248 245 250 252 244 239 235 236 229 228 235 239 235 235 242 247 245 251 257
147 132 338 335 346 150 222 207 184 158 154 188 210 262 299 307 274 266 283 301 305 300 288 276 266 254 251 251 251 250 245 242 243 233 234 242 243 237 239 242 243 240 243 253
142 180 198 220 231 198 229 224 194 175 204 227 231 255 282 288 293 296 295 290 288 280 276 268 264 258 255 256 255 256 255 247 244 235 234 242 241 236 238 240 238 237 235 241
144 228 237 250 257 246 244 241 220 217 218 228 246 249 262 262 263 270 273 275 279 279 274 263 255 255 254 259 260 256 255 251 241 239 241 245 246 239 235 236 238 237 235 240
167 229 251 269 253 249 260 250 235 234 235 241 257 268 267 262 257 265 269 267 270 269 264 264 259 255 253 253 256 256 253 251 241 244 249 252 249 244 239 237 237 236 240 244
190 188 224 269 285 295 263 237 219 217 213 208 234 248 268 266 259 256 259 261 261 264 265 263 260 252 252 252 246 247 248 249 246 250 255 251 245 244 244 241 235 237 241 242
185 188 219 267 320 247 246 212 200 213 233 215 232 253 252 253 262 260 249 247 261 265 266 264 260 256 256 252 251 253 251 245 248 255 256 252 245 246 246 238 238 241 241 239
197 189 205 220 248 273 285 248 187 195 252 219 227 255 270 287 309 288 249 230 242 254 258 257 253 251 254 254 250 251 256 252 251 254 254 252 247 247 243 240 241 240 237 242
171 189 203 212 234 249 253 240 176 140 262 233 203 235 249 134 302 278 277 275 274 274 269 265 261 255 254 256 245 244 254 255 255 254 254 252 245 242 243 242 242 238 233 240
156 192 215 226 242 262 254 210 128 188 250 271 212 227 217 219 237 258 275 280 278 281 281 278 269 259 256 252 238 250 258 256 258 261 259 255 249 245 245 243 242 234 232 233
186 190 204 200 227 252 213 142 187 231 276 274 252 240 239 253 266 270 273 275 283 287 285 281 271 269 265 246 231 251 259 260 265 266 265 263 258 254 247 238 241 229 220 228
207 201 200 206 225 256 201 216 246 251 264 267 262 264 258 266 271 272 271 275 279 277 277 272 261 269 271 252 231 248 261 264 266 267 268 268 264 256 242 232 236 231 218 223
243 217 216 249 260 265 264 261 260 252 254 262 264 267 262 263 269 274 275 277 276 274 274 270 264 265 272 265 250 249 260 259 255 259 265 265 260 259 250 239 228 224 222 223
226 199 226 254 269 285 269 248 254 258 254 261 269 265 256 257 268 269 272 272 271 275 273 266 259 263 268 269 265 261 255 247 250 254 258 258 255 253 252 246 235 228 226 222
210 207 222 251 248 246 265 266 258 257 261 262 267 274 267 248 255 261 262 263 265 269 271 268 265 264 269 268 268 267 254 237 239 251 253 251 253 253 249 252 269 253 244 247
Height
1498 1502 1505 1504 1503 1502 1503 1504 1504 1501 1497 1497 1497 1494 1489 1488 1488 1488 1488 1489 1490 1491 1493 1495 1497 1499 1500 1502 1503 1505 1505 1506 1507 1507 1508 1508 1508 1508 1508 1508 1507 1506 1506 1505
1503 1505 1503 1501 1501 1501 1502 1504 1504 1501 1498 1498 1497 1494 1487 1485 1485 1485 1485 1486 1487 1489 1491 1493 1495 1497 1499 1501 1502 1503 1504 1505 1505 1506 1506 1506 1506 1506 1506 1506 1505 1504 1504 1503
1504 1504 1501 1501 1502 1502 1504 1505 1504 1503 1500 1499 1499 1493 1487 1484 1484 1484 1483 1483 1484 1486 1488 1491 1493 1495 1497 1499 1500 1501 1502 1503 1504 1504 1504 1505 1505 1504 1504 1504 1503 1502 1501 1501
1505 1503 1502 1502 1503 1502 1504 1502 1502 1502 1505 1507 1505 1504 1489 1486 1484 1482 1481 1481 1482 1484 1487 1489 1491 1493 1495 1497 1499 1500 1501 1501 1502 1502 1502 1502 1502 1502 1502 1501 1501 1500 1499 1498
1506 1504 1504 1504 1504 1503 1504 1503 1503 1504 1506 1509 1507 1507 1494 1487 1484 1481 1479 1480 1481 1483 1485 1487 1489 1491 1494 1495 1497 1498 1498 1499 1500 1500 1500 1500 1500 1499 1499 1499 1498 1497 1496 1495
1506 1505 1504 1504 1503 1503 1503 1504 1506 1510 1511 1510 1506 1509 1498 1489 1482 1480 1478 1478 1479 1481 1483 1486 1488 1490 1491 1493 1494 1495 1496 1497 1497 1497 1497 1497 1497 1496 1496 1495 1494 1494 1493 1492
1507 1506 1505 1504 1504 1504 1505 1510 1517 1514 1518 1511 1507 1507 1497 1482 1479 1478 1477 1477 1477 1479 1481 1484 1486 1487 1489 1490 1492 1493 1493 1494 1494 1495 1494 1494 1494 1493 1492 1492 1491 1490 1489 1488
1511 1511 1506 1505 1505 1507 1508 1510 1517 1516 1516 1515 1509 1506 1490 1480 1478 1476 1476 1476 1476 1478 1480 1482 1484 1485 1487 1488 1489 1490 1491 1491 1492 1492 1491 1491 1491 1490 1489 1488 1488 1487 1485 1484
1513 1511 1507 1506 1505 1506 1509 1513 1513 1520 1522 1520 1508 1501 1487 1478 1477 1476 1476 1476 1476 1477 1479 1480 1482 1483 1485 1486 1487 1488 1488 1488 1488 1488 1488 1488 1487 1486 1486 1485 1484 1483 1482 1481
1509 1512 1508 1507 1506 1507 1508 1511 1517 1518 1515 1512 1505 1501 1492 1480 1478 1477 1477 1476 1476 1477 1478 1479 1481 1481 1482 1483 1484 1485 1485 1485 1485 1485 1484 1484 1483 1483 1482 1481 1480 1480 1479 1478
1509 1513 1511 1509 1508 1508 1510 1511 1513 1518 1518 1516 1512 1497 1481 1478 1476 1477 1476 1476 1476 1476 1477 1478 1479 1480 1480 1481 1481 1481 1481 1481 1481 1481 1480 1480 1479 1478 1477 1477 1476 1476 1475 1474
1510 1515 1515 1510 1506 1506 1507 1508 1512 1513 1515 1520 1518 1498 1475 1475 1475 1475 1475 1475 1474 1475 1475 1476 1476 1477 1477 1478 1478 1478 1478 1478 1477 1477 1476 1475 1475 1474 1473 1472 1472 1471 1471 1470
1509 1513 1513 1508 1510 1509 1507 1507 1508 1510 1514 1519 1514 1493 1475 1474 1473 1473 1474 1473 1473 1473 1473 1473 1473 1473 1474 1474 1474 1474 1474 1474 1473 1472 1472 1471 1470 1470 1469 1468 1468 1467 1466 1465
1505 1510 1511 1505 1501 1503 1504 1504 1506 1508 1511 1510 1502 1487 1476 1473 1473 1472 1472 1472 1471 1470 1470 1470 1470 1470 1470 1470 1470 1470 1470 1469 1469 1468 1468 1467 1466 1465 1465 1464 1463 1463 1462 1461
1504 1507 1506 1503 1500 1501 1499 1498 1500 1501 1497 1497 1486 1484 1473 1472 1472 1471 1470 1469 1468 1467 1467 1466 1466 1466 1466 1466 1466 1466 1466 1465 1465 1464 1463 1462 1462 1461 1460 1459 1459 1458 1457 1456
1503 1505 1504 1501 1498 1498 1495 1490 1490 1490 1489 1486 1481 1476 1468 1468 1469 1468 1467 1466 1465 1464 1463 1463 1463 1463 1462 1462 1462 1462 1461 1461 1460 1459 1459 1458 1457 1456 1456 1455 1454 1453 1452 1451
1503 1504 1503 1500 1497 1494 1488 1477 1477 1479 1476 1476 1476 1469 1465 1466 1465 1464 1463 1462 1461 1461 1460 1460 1459 1459 1459 1458 1458 1457 1457 1456 1455 1455 1454 1453 1452 1451 1451 1450 1449 1448 1447 1446
1499 1501 1502 1499 1498 1493 1471 1466 1466 1468 1468 1468 1466 1464 1463 1463 1462 1461 1460 1459 1458 1458 1457 1456 1456 1455 1455 1454 1454 1453 1452 1451 1450 1450 1449 1448 1447 1446 1445 1444 1443 1443 1442 1441
1491 1495 1498 1498 1496 1483 1470 1464 1464 1467 1465 1461 1462 1461 1460 1460 1460 1458 1457 1457 1456 1455 1454 1453 1452 1451 1450 1450 1449 1448 1447 1446 1445 1444 1443 1442 1442 1440 1439 1438 1438 1437 1436 1435
1490 1491 1495 1494 1491 1482 1464 1460 1459 1463 1463 1456 1456 1457 1458 1459 1461 1457 1454 1454 1453 1452 1451 1449 1448 1447 1446 1446 1445 1443 1442 1441 1440 1439 1438 1437 1436 1435 1434 1433 1432 1431 1431 1430
1491 1491 1491 1488 1485 1473 1461 1459 1460 1466 1459 1454 1453 1454 1455 1455 1455 1452 1451 1450 1449 1448 1447 1445 1444 1443 1442 1441 1440 1439 1437 1436 1435 1434 1433 1432 1431 1429 1428 1427 1427 1426 1426 1425
1482 1485 1485 1483 1482 1470 1456 1457 1460 1456 1453 1452 1451 1451 1451 1450 1449 1448 1447 1446 1445 1444 1442 1441 1440 1438 1438 1437 1435 1434 1433 1432 1431 1429 1428 1426 1425 1424 1423 1422 1421 1421 1420 1420
1473 1470 1469 1468 1461 1454 1452 1451 1451 1451 1450 1449 1448 1448 1447 1446 1445 1444 1443 1442 1440 1439 1438 1436 1435 1434 1433 1432 1431 1429 1428 1427 1425 1424 1422 1421 1420 1419 1418 1417 1416 1416 1415 1415
1466 1463 1464 1462 1453 1449 1449 1448 1447 1447 1446 1445 1445 1444 1443 1442 1440 1439 1438 1437 1436 1434 1433 1432 1430 1429 1428 1427 1426 1424 1423 1422 1420 1419 1417 1416 1414 1413 1413 1412 1411 1411 1410 1410
1458 1459 1459 1455 1449 1446 1442 1442 1442 1442 1441 1441 1440 1439 1438 1437 1435 1434 1433 1432 1431 1430 1429 1427 1426 1424 1422 1421 1420 1419 1418 1416 1415 1413 1412 1411 1409 1408 1407 1407 1407 1406 1406 1406
1450 1452 1452 1446 1442 1442 1438 1437 1437 1437 1436 1435 1434 1433 1432 1432 1430 1429 1428 1427 1426 1425 1424 1422 1421 1419 1417 1416 1414 1413 1412 1411 1409 1408 1407 1406 1404 1404 1403 1402 1402 1401 1401 1401